SCP
0 0 0 0 0 0 0 0 0 0 0 0 0 0 0 0 0 0 0 0 0 0 0 0 0 0 0 0 0 0 0 0 0 0 0 0 0 0 0 0 0 0 0 0
0 0 0 0 0 0 1 0 0 0 0 0 0 0 0 0 0 0 0 0 0 0 0 0 0 0 0 0 0 0 0 0 0 0 0 0 0 0 0 0 0 0 0 0
0 0 0 0 0 0 0 0 0 0 0 0 0 0 0 0 0 0 0 0 0 0 0 0 0 0 0 0 0 0 0 0 0 0 0 0 0 0 0 0 0 0 0 0
0 0 0 0 0 0 0 0 0 0 0 0 0 0 0 0 0 0 0 0 0 0 0 0 0 0 0 0 0 0 0 0 0 0 0 0 0 0 0 0 0 0 0 0
0 0 0 0 0 0 1 0 0 0 0 0 0 0 0 0 0 0 0 0 0 0 0 0 0 0 0 0 0 0 0 0 0 0 0 0 0 0 0 0 0 0 0 0
0 0 0 0 0 0 1 0 0 0 0 0 0 0 0 0 0 0 0 0 0 0 0 0 0 0 0 0 0 0 0 0 0 0 0 0 0 0 0 0 0 0 0 0
0 0 0 0 0 0 0 0 0 0 0 0 0 0 0 0 0 0 0 0 0 0 0 0 0 0 0 0 0 0 0 0 0 0 0 0 0 0 0 0 0 0 0 0
0 0 0 0 0 0 1 0 0 0 0 0 0 0 0 0 0 0 0 0 0 0 0 0 0 0 0 0 0 0 0 0 0 0 0 0 0 0 0 0 0 0 0 0
0 0 0 0 0 0 0 0 0 0 0 0 0 0 0 0 0 0 0 0 0 0 0 0 0 0 0 0 0 0 0 0 0 0 0 0 0 0 0 0 0 0 0 0
0 0 0 0 0 0 0 0 0 0 0 0 0 0 0 0 0 0 0 0 0 0 0 0 0 0 0 0 0 0 0 0 0 0 0 0 0 0 0 0 0 0 0 0
0 0 0 0 0 0 0 0 0 0 0 0 0 0 0 0 0 0 0 0 0 0 0 0 0 0 0 0 0 0 0 0 0 0 0 0 0 0 0 0 0 0 0 0
0 0 0 0 0 0 0 0 0 0 0 0 0 0 0 0 0 0 0 0 0 0 0 0 0 0 0 0 0 0 0 0 0 0 0 0 0 0 0 0 0 0 0 0
0 0 0 0 0 0 0 0 0 0 0 0 0 0 0 0 0 0 0 0 0 0 0 0 0 0 0 0 0 0 0 0 0 0 0 0 0 0 0 0 0 0 0 0
0 0 0 0 0 0 0 0 0 0 0 0 0 0 0 0 0 0 0 0 0 0 0 0 0 0 0 0 0 0 0 0 0 0 0 0 0 0 0 0 0 0 0 0
0 0 0 0 0 0 0 0 0 0 0 0 0 0 0 0 0 0 0 0 0 0 0 0 0 0 0 0 0 0 0 0 0 0 0 0 0 0 0 0 0 0 0 0
0 0 0 0 0 0 0 0 0 0 0 0 0 0 0 0 0 0 0 0 0 0 0 0 0 0 0 0 0 0 0 0 0 0 0 0 0 0 0 0 0 0 0 0
0 0 0 0 0 0 0 0 0 0 0 0 0 0 0 0 0 0 0 0 0 0 0 0 0 0 0 0 0 0 0 0 0 0 0 0 0 0 0 0 0 0 0 0
0 0 0 0 0 0 0 0 0 0 0 0 0 0 0 0 0 0 0 0 0 0 0 0 0 0 0 0 0 0 0 0 0 0 0 0 0 0 0 0 0 0 0 0
-0 -0 -0 0 0 0 0 0 0 0 0 0 0 0 0 0 0 0 0 0 0 0 0 0 0 0 0 0 0 0 0 0 0 0 0 0 0 0 0 0 0 0 0 0
0 -0 0 0 0 0 0 0 0 0 0 0 0 0 0 0 0 0 0 0 0 0 0 0 0 0 0 0 0 0 0 0 0 0 0 0 0 0 0 0 0 0 0 0
0 0 0 0 0 0 0 0 0 0 0 0 0 0 0 0 0 0 0 0 0 0 0 0 0 0 0 0 0 0 0 0 0 0 0 0 0 0 0 -0 0 0 0 0
0 0 0 0 0 0 0 0 0 0 0 0 0 0 0 0 0 0 0 0 0 0 0 0 0 0 0 0 0 0 0 0 0 0 0 0 0 0 0 0 0 0 0 0
0 0 0 0 0 0 0 0 0 0 0 0 0 0 0 0 0 0 0 0 0 0 0 0 0 0 0 0 0 0 0 0 0 0 0 0 0 0 0 0 0 0 0 0
0 0 0 0 0 0 0 0 0 0 0 0 0 0 0 0 0 0 0 0 0 0 0 0 0 0 0 0 0 0 0 0 0 0 0 0 0 0 0 0 0 0 0 0
0 0 0 0 0 0 0 0 0 0 0 0 0 0 0 0 0 0 0 0 0 0 0 0 0 0 0 0 0 0 0 0 0 0 0 0 0 0 0 0 0 0 0 0
0 0 0 0 0 0 0 0 0 0 0 0 0 0 0 0 0 0 0 0 0 0 0 0 0 0 0 0 0 0 0 0 0 0 0 0 0 0 0 0 0 0 0 0
0 0 0 0 0 0 0 0 0 0 0 0 0 0 0 0 0 0 0 0 0 0 0 0 0 0 0 0 0 0 0 0 0 0 0 0 0 0 0 0 0 0 0 0
Wind_Speed_500mb
104 101 95 92 87 73 67 66 10 66 129 21 24 34 37 51 42 42 22 12 43 47 47 50 44 47 31 58 45 59 39 15 20 41 31 37 39 37 37 19 19 23 12 6
104 99 96 94 92 86 76 26 16 80 127 23 31 23 33 32 36 30 29 29 23 21 10 26 42 44 14 37 32 38 27 13 12 24 26 19 29 33 34 29 7 24 14 8
104 100 97 98 95 91 77 21 5 27 77 51 43 38 39 32 39 27 25 18 2 8 18 12 12 13 8 8 10 19 4 14 23 20 22 23 38 41 38 37 24 23 29 19
104 105 101 102 99 96 76 32 8 14 29 27 43 48 43 54 24 38 47 27 27 23 17 10 23 10 10 2 14 4 2 13 26 36 32 15 20 29 48 48 38 30 29 38
102 111 100 103 101 99 74 24 9 9 32 49 36 48 31 63 44 40 47 33 36 28 14 14 15 14 10 8 7 4 9 3 11 24 34 35 28 40 38 47 45 41 37 33
104 113 104 106 105 107 51 31 45 13 30 38 34 37 56 57 51 39 46 36 21 23 5 25 26 27 23 10 14 7 8 8 6 10 25 20 26 35 39 37 39 34 35 24
114 105 102 106 104 112 62 54 39 12 11 35 44 54 52 45 54 38 30 16 23 30 46 43 36 47 28 14 12 21 14 13 7 1 9 14 8 5 34 38 33 29 25 20
96 97 98 100 104 111 67 59 56 14 3 38 48 55 51 45 46 17 10 9 23 62 23 7 8 5 4 2 10 26 22 9 9 10 15 14 13 11 15 22 32 36 34 30
85 90 90 94 94 102 90 54 50 25 7 23 59 40 38 24 13 7 7 16 69 36 6 5 12 12 12 13 12 23 27 18 8 8 11 19 1 9 24 3 20 19 16 11
77 81 83 86 87 95 98 77 48 25 8 6 45 26 23 25 12 11 10 23 7 11 6 7 7 9 17 20 27 16 12 8 17 14 11 11 7 28 32 13 1 21 20 19
68 70 73 76 78 83 84 71 71 29 11 11 21 26 28 29 27 13 22 15 3 5 8 8 7 7 14 12 23 20 17 16 10 8 12 18 35 34 18 18 28 28 26 20
61 65 69 68 69 78 83 61 74 44 19 14 30 31 37 38 38 42 49 8 14 15 7 5 6 7 10 16 15 27 11 10 12 16 9 4 48 26 27 30 31 22 20 15
56 55 62 63 79 70 95 73 79 40 21 22 17 23 34 37 30 54 21 14 16 12 12 8 4 6 8 11 9 23 15 31 7 12 15 21 38 37 40 26 19 20 16 13
53 58 61 63 51 89 91 78 69 50 26 8 8 30 35 34 37 47 44 42 30 34 24 6 4 6 6 10 8 15 11 19 20 13 13 23 25 35 35 27 20 17 14 13
41 50 57 55 74 78 74 80 57 57 14 8 17 40 36 41 36 42 49 59 49 24 8 4 3 7 5 1 1 13 20 18 15 10 19 17 30 42 33 26 29 19 19 16
54 61 63 70 69 71 83 18 38 38 69 24 7 16 20 29 42 56 52 49 34 12 11 5 6 6 1 5 9 14 28 27 30 15 26 36 24 27 24 25 21 22 20 16
62 73 81 71 44 44 15 19 50 48 29 19 9 7 8 31 37 33 39 30 22 12 7 5 11 10 8 4 7 13 19 26 30 18 10 24 27 30 26 22 21 20 19 18
58 62 60 39 55 71 56 58 47 42 26 16 9 9 8 24 25 16 25 17 12 3 5 6 9 8 6 6 13 14 15 17 12 24 24 20 22 24 27 28 25 25 24 21
50 47 40 27 34 25 43 50 43 19 12 9 7 13 11 21 22 28 10 8 5 4 3 6 13 8 8 12 15 15 14 21 19 23 27 25 26 27 29 30 28 29 26 22
19 16 9 9 18 28 18 11 7 9 17 14 15 29 16 32 22 5 5 6 6 6 8 13 2 8 18 13 15 15 15 15 26 22 30 33 34 33 29 29 32 31 28 25
9 11 10 11 21 13 9 7 4 6 5 16 28 38 24 32 13 10 8 5 5 6 7 9 7 6 16 30 25 20 22 25 29 30 31 31 32 31 31 32 31 31 29 30
15 26 18 14 11 12 9 5 2 6 6 20 23 31 27 19 16 7 5 5 1 4 13 5 5 4 16 27 31 35 29 31 30 31 31 31 26 34 33 31 33 32 33 37
20 12 10 9 9 8 5 4 5 8 8 19 22 14 11 10 11 6 5 6 6 19 7 7 2 15 22 25 22 32 33 33 31 29 28 25 21 21 34 37 35 37 41 43
9 6 8 7 5 6 9 10 16 15 31 42 36 12 6 7 5 5 7 4 8 7 7 8 8 20 23 19 22 32 37 34 32 29 27 26 26 29 31 36 37 38 43 48
8 9 6 4 11 16 15 26 32 45 51 44 25 13 12 7 5 2 8 3 6 8 6 5 10 23 33 28 25 29 32 35 32 27 26 23 23 27 31 34 38 45 52 56
8 7 10 21 14 6 12 31 33 44 41 39 15 8 6 4 8 6 8 10 8 8 7 16 20 32 35 32 25 29 28 25 24 20 25 29 31 34 39 44 48 49 50 51
6 2 18 15 19 16 17 25 26 35 30 6 7 6 5 10 6 10 8 5 5 15 22 19 23 26 28 29 25 19 17 18 18 21 26 31 38 40 37 32 27 26 27 31
Wind_Direction_500mb
216 216 214 213 207 200 194 201 205 180 173 165 187 200 194 208 210 236 240 255 235 225 203 194 202 220 198 189 185 207 209 232 216 210 200 218 223 216 225 223 210 220 232 139
210 210 210 208 202 196 185 194 194 177 174 174 193 177 205 208 212 191 226 220 229 271 253 204 215 208 353 193 194 195 182 211 197 193 215 210 232 230 214 231 151 225 208 164
209 206 205 206 200 193 186 175 180 170 193 187 182 181 191 202 224 200 215 223 320 242 239 257 241 122 20 329 127 79 124 207 216 216 210 194 218 231 231 215 227 215 224 191
206 204 202 203 199 191 183 188 227 201 183 179 188 196 177 187 175 216 212 207 203 200 216 224 232 106 122 306 51 51 49 242 237 247 249 220 284 247 226 239 223 219 226 230
204 201 200 200 196 190 187 155 188 232 170 171 176 195 191 190 198 178 215 214 195 199 208 198 184 99 167 147 118 183 50 21 306 269 263 263 251 249 247 227 242 242 244 237
198 198 196 196 194 188 193 179 204 224 169 171 177 190 201 202 191 220 211 212 177 201 170 75 70 83 85 84 139 96 112 148 172 238 237 254 267 237 250 249 224 241 238 246
191 194 194 195 193 192 190 198 182 223 190 181 189 193 200 196 202 197 207 185 198 138 128 96 75 58 62 84 125 161 170 162 163 173 100 221 237 57 227 241 242 245 252 253
187 191 192 194 193 191 184 193 194 207 195 190 196 199 195 204 199 185 140 125 167 147 100 89 91 53 78 118 204 200 185 150 156 182 211 323 246 171 194 211 238 240 249 242
188 190 193 192 194 194 189 178 186 177 151 203 198 194 195 184 154 93 73 130 151 149 105 143 174 178 158 182 167 209 201 187 221 172 194 214 209 221 183 169 252 245 199 138
186 189 190 191 193 195 196 204 194 193 111 52 192 187 182 133 130 106 127 142 116 109 135 164 174 177 178 172 176 172 173 178 193 179 222 258 125 117 123 162 4 162 163 139
183 185 185 189 193 192 191 201 217 196 119 110 163 168 148 144 149 142 151 99 168 138 172 173 168 170 186 174 173 174 168 160 176 185 198 231 152 137 166 114 103 104 115 127
177 181 183 187 186 190 191 190 204 201 150 131 137 156 172 180 167 149 165 107 139 159 142 154 135 180 176 169 180 181 186 177 164 189 198 99 163 147 141 145 138 144 155 157
179 186 189 191 197 207 196 184 193 180 103 81 104 120 152 161 168 181 137 160 150 167 136 120 136 156 209 176 204 170 198 197 205 191 205 180 163 153 145 147 155 159 160 172
190 193 193 190 197 182 185 182 170 152 115 92 80 133 135 148 160 171 173 154 133 130 117 98 138 132 163 204 172 185 169 182 176 199 179 150 177 147 152 159 164 159 164 174
185 197 194 198 190 186 168 165 156 164 126 128 109 104 126 140 140 144 131 140 134 114 100 107 120 163 187 232 280 190 179 190 176 204 180 176 182 174 183 179 167 185 188 182
169 181 186 190 182 167 153 115 129 133 133 113 94 78 115 134 133 136 136 131 123 113 120 159 98 57 35 166 202 205 194 170 197 217 189 189 187 190 167 165 192 178 189 192
120 126 131 130 128 154 110 143 137 130 98 96 107 95 98 138 131 134 142 144 139 133 138 161 139 144 112 172 202 163 191 192 195 206 204 168 175 164 163 180 178 180 188 196
86 86 85 83 109 102 100 110 119 112 100 87 106 106 120 151 131 116 130 107 112 95 132 134 115 130 172 216 222 219 187 195 216 206 204 174 181 177 199 180 186 197 204 208
111 98 105 76 88 79 107 98 95 109 116 119 135 140 128 168 133 115 104 118 94 122 162 178 150 150 204 205 209 188 212 175 202 214 197 169 196 200 191 183 198 208 216 220
103 133 106 90 127 121 132 106 97 51 31 82 114 111 124 136 148 102 116 139 135 158 200 113 151 237 224 191 188 188 183 191 187 190 176 180 191 206 193 203 212 217 222 228
37 51 75 113 57 60 54 59 70 107 96 113 124 130 128 144 120 129 121 136 143 181 148 153 201 237 216 212 192 188 183 189 188 192 192 203 204 201 202 215 218 221 229 237
86 112 83 38 37 40 65 43 1 125 94 121 125 120 99 76 89 93 96 95 199 154 133 150 235 208 165 181 200 191 186 182 183 184 194 201 194 203 209 218 229 235 239 242
85 60 46 10 3 45 57 76 85 111 100 123 123 106 111 88 82 77 97 144 179 135 165 209 236 157 178 172 181 183 181 181 184 178 185 186 196 208 222 224 232 245 251 250
57 64 52 16 41 36 3 116 105 115 128 122 115 80 84 117 91 135 125 147 134 183 207 212 174 174 159 159 170 180 177 178 181 183 188 200 212 223 232 246 262 267 265 263
53 45 63 71 80 72 77 116 123 126 123 121 110 89 80 78 99 157 96 119 192 217 223 114 149 169 143 143 154 164 164 170 179 191 198 203 221 234 244 255 264 269 273 278
53 44 107 97 113 105 103 116 114 127 134 154 123 112 123 124 135 136 176 180 214 177 119 150 155 148 145 148 152 149 162 173 184 206 228 244 257 267 274 275 275 275 276 277
71 86 121 129 114 129 126 129 136 147 161 129 107 107 150 135 178 189 188 208 95 128 127 141 137 138 138 151 161 156 167 194 223 245 262 277 289 291 288 289 294 293 295 297
Wind_Speed_850mb
104 101 95 92 87 73 67 66 10 66 129 21 24 34 37 51 42 42 22 12 43 47 47 50 44 47 31 58 45 59 39 15 20 41 31 37 39 37 37 19 19 23 12 6
104 99 96 94 92 86 76 26 16 80 127 23 31 23 33 32 36 30 29 29 23 21 10 26 42 44 14 37 32 38 27 13 12 24 26 19 29 33 34 29 7 24 14 8
104 100 97 98 95 91 77 21 5 27 77 51 43 38 39 32 39 27 25 18 2 8 18 12 12 13 8 8 10 19 4 14 23 20 22 23 38 41 38 37 24 23 29 19
104 105 101 102 99 96 76 32 8 14 29 27 43 48 43 54 24 38 47 27 27 23 17 10 23 10 10 2 14 4 2 13 26 36 32 15 20 29 48 48 38 30 29 38
102 111 100 103 101 99 74 24 9 9 32 49 36 48 31 63 44 40 47 33 36 28 14 14 15 14 10 8 7 4 9 3 11 24 34 35 28 40 38 47 45 41 37 33
104 113 104 106 105 107 51 31 45 13 30 38 34 37 56 57 51 39 46 36 21 23 5 25 26 27 23 10 14 7 8 8 6 10 25 20 26 35 39 37 39 34 35 24
114 105 102 106 104 112 62 54 39 12 11 35 44 54 52 45 54 38 30 16 23 30 46 43 36 47 28 14 12 21 14 13 7 1 9 14 8 5 34 38 33 29 25 20
96 97 98 100 104 111 67 59 56 14 3 38 48 55 51 45 46 17 10 9 23 62 23 7 8 5 4 2 10 26 22 9 9 10 15 14 13 11 15 22 32 36 34 30
85 90 90 94 94 102 90 54 50 25 7 23 59 40 38 24 13 7 7 16 69 36 6 5 12 12 12 13 12 23 27 18 8 8 11 19 1 9 24 3 20 19 16 11
77 81 83 86 87 95 98 77 48 25 8 6 45 26 23 25 12 11 10 23 7 11 6 7 7 9 17 20 27 16 12 8 17 14 11 11 7 28 32 13 1 21 20 19
68 70 73 76 78 83 84 71 71 29 11 11 21 26 28 29 27 13 22 15 3 5 8 8 7 7 14 12 23 20 17 16 10 8 12 18 35 34 18 18 28 28 26 20
61 65 69 68 69 78 83 61 74 44 19 14 30 31 37 38 38 42 49 8 14 15 7 5 6 7 10 16 15 27 11 10 12 16 9 4 48 26 27 30 31 22 20 15
56 55 62 63 79 70 95 73 79 40 21 22 17 23 34 37 30 54 21 14 16 12 12 8 4 6 8 11 9 23 15 31 7 12 15 21 38 37 40 26 19 20 16 13
53 58 61 63 51 89 91 78 69 50 26 8 8 30 35 34 37 47 44 42 30 34 24 6 4 6 6 10 8 15 11 19 20 13 13 23 25 35 35 27 20 17 14 13
41 50 57 55 74 78 74 80 57 57 14 8 17 40 36 41 36 42 49 59 49 24 8 4 3 7 5 1 1 13 20 18 15 10 19 17 30 42 33 26 29 19 19 16
54 61 63 70 69 71 83 18 38 38 69 24 7 16 20 29 42 56 52 49 34 12 11 5 6 6 1 5 9 14 28 27 30 15 26 36 24 27 24 25 21 22 20 16
62 73 81 71 44 44 15 19 50 48 29 19 9 7 8 31 37 33 39 30 22 12 7 5 11 10 8 4 7 13 19 26 30 18 10 24 27 30 26 22 21 20 19 18
58 62 60 39 55 71 56 58 47 42 26 16 9 9 8 24 25 16 25 17 12 3 5 6 9 8 6 6 13 14 15 17 12 24 24 20 22 24 27 28 25 25 24 21
50 47 40 27 34 25 43 50 43 19 12 9 7 13 11 21 22 28 10 8 5 4 3 6 13 8 8 12 15 15 14 21 19 23 27 25 26 27 29 30 28 29 26 22
19 16 9 9 18 28 18 11 7 9 17 14 15 29 16 32 22 5 5 6 6 6 8 13 2 8 18 13 15 15 15 15 26 22 30 33 34 33 29 29 32 31 28 25
9 11 10 11 21 13 9 7 4 6 5 16 28 38 24 32 13 10 8 5 5 6 7 9 7 6 16 30 25 20 22 25 29 30 31 31 32 31 31 32 31 31 29 30
15 26 18 14 11 12 9 5 2 6 6 20 23 31 27 19 16 7 5 5 1 4 13 5 5 4 16 27 31 35 29 31 30 31 31 31 26 34 33 31 33 32 33 37
20 12 10 9 9 8 5 4 5 8 8 19 22 14 11 10 11 6 5 6 6 19 7 7 2 15 22 25 22 32 33 33 31 29 28 25 21 21 34 37 35 37 41 43
9 6 8 7 5 6 9 10 16 15 31 42 36 12 6 7 5 5 7 4 8 7 7 8 8 20 23 19 22 32 37 34 32 29 27 26 26 29 31 36 37 38 43 48
8 9 6 4 11 16 15 26 32 45 51 44 25 13 12 7 5 2 8 3 6 8 6 5 10 23 33 28 25 29 32 35 32 27 26 23 23 27 31 34 38 45 52 56
8 7 10 21 14 6 12 31 33 44 41 39 15 8 6 4 8 6 8 10 8 8 7 16 20 32 35 32 25 29 28 25 24 20 25 29 31 34 39 44 48 49 50 51
6 2 18 15 19 16 17 25 26 35 30 6 7 6 5 10 6 10 8 5 5 15 22 19 23 26 28 29 25 19 17 18 18 21 26 31 38 40 37 32 27 26 27 31
Wind_Direction_850mb
216 216 214 213 207 200 194 201 205 180 173 165 187 200 194 208 210 236 240 255 235 225 203 194 202 220 198 189 185 207 209 232 216 210 200 218 223 216 225 223 210 220 232 139
210 210 210 208 202 196 185 194 194 177 174 174 193 177 205 208 212 191 226 220 229 271 253 204 215 208 353 193 194 195 182 211 197 193 215 210 232 230 214 231 151 225 208 164
209 206 205 206 200 193 186 175 180 170 193 187 182 181 191 202 224 200 215 223 320 242 239 257 241 122 20 329 127 79 124 207 216 216 210 194 218 231 231 215 227 215 224 191
206 204 202 203 199 191 183 188 227 201 183 179 188 196 177 187 175 216 212 207 203 200 216 224 232 106 122 306 51 51 49 242 237 247 249 220 284 247 226 239 223 219 226 230
204 201 200 200 196 190 187 155 188 232 170 171 176 195 191 190 198 178 215 214 195 199 208 198 184 99 167 147 118 183 50 21 306 269 263 263 251 249 247 227 242 242 244 237
198 198 196 196 194 188 193 179 204 224 169 171 177 190 201 202 191 220 211 212 177 201 170 75 70 83 85 84 139 96 112 148 172 238 237 254 267 237 250 249 224 241 238 246
191 194 194 195 193 192 190 198 182 223 190 181 189 193 200 196 202 197 207 185 198 138 128 96 75 58 62 84 125 161 170 162 163 173 100 221 237 57 227 241 242 245 252 253
187 191 192 194 193 191 184 193 194 207 195 190 196 199 195 204 199 185 140 125 167 147 100 89 91 53 78 118 204 200 185 150 156 182 211 323 246 171 194 211 238 240 249 242
188 190 193 192 194 194 189 178 186 177 151 203 198 194 195 184 154 93 73 130 151 149 105 143 174 178 158 182 167 209 201 187 221 172 194 214 209 221 183 169 252 245 199 138
186 189 190 191 193 195 196 204 194 193 111 52 192 187 182 133 130 106 127 142 116 109 135 164 174 177 178 172 176 172 173 178 193 179 222 258 125 117 123 162 4 162 163 139
183 185 185 189 193 192 191 201 217 196 119 110 163 168 148 144 149 142 151 99 168 138 172 173 168 170 186 174 173 174 168 160 176 185 198 231 152 137 166 114 103 104 115 127
177 181 183 187 186 190 191 190 204 201 150 131 137 156 172 180 167 149 165 107 139 159 142 154 135 180 176 169 180 181 186 177 164 189 198 99 163 147 141 145 138 144 155 157
179 186 189 191 197 207 196 184 193 180 103 81 104 120 152 161 168 181 137 160 150 167 136 120 136 156 209 176 204 170 198 197 205 191 205 180 163 153 145 147 155 159 160 172
190 193 193 190 197 182 185 182 170 152 115 92 80 133 135 148 160 171 173 154 133 130 117 98 138 132 163 204 172 185 169 182 176 199 179 150 177 147 152 159 164 159 164 174
185 197 194 198 190 186 168 165 156 164 126 128 109 104 126 140 140 144 131 140 134 114 100 107 120 163 187 232 280 190 179 190 176 204 180 176 182 174 183 179 167 185 188 182
169 181 186 190 182 167 153 115 129 133 133 113 94 78 115 134 133 136 136 131 123 113 120 159 98 57 35 166 202 205 194 170 197 217 189 189 187 190 167 165 192 178 189 192
120 126 131 130 128 154 110 143 137 130 98 96 107 95 98 138 131 134 142 144 139 133 138 161 139 144 112 172 202 163 191 192 195 206 204 168 175 164 163 180 178 180 188 196
86 86 85 83 109 102 100 110 119 112 100 87 106 106 120 151 131 116 130 107 112 95 132 134 115 130 172 216 222 219 187 195 216 206 204 174 181 177 199 180 186 197 204 208
111 98 105 76 88 79 107 98 95 109 116 119 135 140 128 168 133 115 104 118 94 122 162 178 150 150 204 205 209 188 212 175 202 214 197 169 196 200 191 183 198 208 216 220
103 133 106 90 127 121 132 106 97 51 31 82 114 111 124 136 148 102 116 139 135 158 200 113 151 237 224 191 188 188 183 191 187 190 176 180 191 206 193 203 212 217 222 228
37 51 75 113 57 60 54 59 70 107 96 113 124 130 128 144 120 129 121 136 143 181 148 153 201 237 216 212 192 188 183 189 188 192 192 203 204 201 202 215 218 221 229 237
86 112 83 38 37 40 65 43 1 125 94 121 125 120 99 76 89 93 96 95 199 154 133 150 235 208 165 181 200 191 186 182 183 184 194 201 194 203 209 218 229 235 239 242
85 60 46 10 3 45 57 76 85 111 100 123 123 106 111 88 82 77 97 144 179 135 165 209 236 157 178 172 181 183 181 181 184 178 185 186 196 208 222 224 232 245 251 250
57 64 52 16 41 36 3 116 105 115 128 122 115 80 84 117 91 135 125 147 134 183 207 212 174 174 159 159 170 180 177 178 181 183 188 200 212 223 232 246 262 267 265 263
53 45 63 71 80 72 77 116 123 126 123 121 110 89 80 78 99 157 96 119 192 217 223 114 149 169 143 143 154 164 164 170 179 191 198 203 221 234 244 255 264 269 273 278
53 44 107 97 113 105 103 116 114 127 134 154 123 112 123 124 135 136 176 180 214 177 119 150 155 148 145 148 152 149 162 173 184 206 228 244 257 267 274 275 275 275 276 277
71 86 121 129 114 129 126 129 136 147 161 129 107 107 150 135 178 189 188 208 95 128 127 141 137 138 138 151 161 156 167 194 223 245 262 277 289 291 288 289 294 293 295 297